• MPC Preparation (Info)

  • MPEC 2024-G145 : 2024 GX2

    The following Minor Planet Electronic Circular may be linked-to from your own Web pages, but must not otherwise be redistributed electronically.

    A form allowing access to any MPEC is at the bottom of this page.


    Read MPEC 2024-G144 Read MPEC 2024-G146


    M.P.E.C. 2024-G145                               Issued 2024 April 11, 05:26 UT
    
         The Minor Planet Electronic Circulars contain information on unusual
             minor planets, routine data on comets and natural satellites,
             and occasional editorial announcements.  They are published
        on behalf of Division F of the International Astronomical Union by the
              Minor Planet Center, Smithsonian Astrophysical Observatory,
                              Cambridge, MA 02138, U.S.A.
    			  
                 Prepared using the Tamkin Foundation Computer Network
    
                                  MPC@CFA.HARVARD.EDU
                URL https://www.minorplanetcenter.net/    ISSN 1523-6714
    
                                    2024 GX2                                 
    
    
    Observations:
         K24G02X* C2024 04 09.35738111 52 41.241+02 48 18.70         21.87wXEG145F52
         K24G02X  C2024 04 09.38092611 52 40.105+02 49 06.88         21.79wXEG145F52
         K24G02X  C2024 04 09.39268511 52 39.549+02 49 30.75         21.79wXEG145F52
         K24G02X  C2024 04 09.54674211 52 32.746+02 54 43.31         21.15GVEG145F51
         K24G02X  C2024 04 09.54757511 52 32.705+02 54 45.49         21.22GVEG145F51
         K24G02X |C2024 04 11.05623011 51 54.980+03 44 28.10         21.0 GVEG145807
         K24G02X |C2024 04 11.06724011 51 54.540+03 44 49.30         21.0 GVEG145807
         K24G02X |C2024 04 11.07824011 51 54.100+03 45 09.40         20.9 GVEG145807
         K24G02X KC2024 04 11.21043511 51 50.652+03 48 34.06         22.46GVEG145V06
         K24G02X KC2024 04 11.21424211 51 50.490+03 48 41.00         22.78GVEG145V06
         K24G02X KC2024 04 11.21596311 51 50.425+03 48 44.24         22.07GVEG145V06
         K24G02X KC2024 04 11.21768211 51 50.375+03 48 47.34         21.51GVEG145V06
    
    Observer details:
    807 Cerro Tololo Observatory, La Serena.  Observers T. Linder, R. Holmes.
        0.61-m f/6.8 Ritchey-Chretien + CCD.
    F51 Pan-STARRS 1, Haleakala.  Observers J. Herman, T. Lowe, P. Minguez, A.
        Schultz, I. Smith.  Measurers K. Chambers, T. de Boer, J. Fairlamb, H.
        Gao, M. Huber, C.-C. Lin, E. Magnier, Y. Ramanjooloo, R. Wainscoat, R.
        Weryk.  1.8-m Ritchey-Chretien + CCD.
    F52 Pan-STARRS 2, Haleakala.  Observers J. Herman, T. Lowe, P. Minguez, A.
        Schultz, I. Smith.  Measurers K. Chambers, T. de Boer, J. Fairlamb, H.
        Gao, M. Huber, C.-C. Lin, E. Magnier, Y. Ramanjooloo, R. Wainscoat, R.
        Weryk.  1.8-m Ritchey-Chretien + CCD.
    V06 Catalina Sky Survey-Kuiper.  Observers V. F. Carvajal, G. J. Leonard.
        Measurers T. Beuden, V. F. Carvajal, D. Fay, J. B. Fazekas, D. C. Fuls, A.
        R. Gibbs, A. D. Grauer, H. Groeller, J. K. Hogan, R. A. Kowalski, S. M.
        Larson, G. J. Leonard, D. Rankin, R. L. Seaman, F. C. Shelly, K. W.
        Wierzchos.  1.55-m reflector + 1K CCD.
    
    Orbital elements:
    2024 GX2                                                 Earth MOID = 0.0257 AU
    Epoch 2024 Mar. 31.0 TT = JDT 2460400.5                 MPC                     
    M 100.24557              (2000.0)            P               Q                  
    n   0.85535944     Peri.  235.90618     +0.35671755     -0.93379766             
    a   1.0990993      Node   193.28099     +0.89207255     +0.34932201             
    e   0.1852924      Incl.    6.95819     +0.27741513     +0.07743424             
    P   1.15           H   23.89          G   0.15           U   8                  
    Residuals in seconds of arc
    240409 F52  0.0   0.2+    240409 F51  0.0   0.2+    240411 V06  0.2+  0.1+
    240409 F52  0.2-  0.1+    240411 807  0.1+  0.0     240411 V06  0.0   0.0
    240409 F52  0.1-  0.0     240411 807  0.3-  0.5+    240411 V06  0.0   0.0
    240409 F51  0.1+  0.3-    240411 807  0.6-  0.1-    240411 V06  0.2+  0.1-
    
    Ephemeris:
    2024 GX2                 a,e,i = 1.10, 0.19, 7                   q = 0.8954
    Date    TT    R. A. (2000) Decl.     Delta      r    Elong.  Phase     V
    2024 03 12    12 31 27.0 -23 28 44   0.1390  1.1153   149.2    27.2    21.1
    ...
    2024 03 27    12 05 26.4 -07 22 35   0.1617  1.1586   173.4     5.7    20.7
    ...
    2024 04 04    11 56 24.5 -00 39 12   0.1852  1.1800   165.0    12.6    21.3
    ...
    2024 04 10    11 52 21.8 +03 10 05   0.2076  1.1952   156.6    19.4    21.8
    2024 04 11    11 51 55.2 +03 42 18   0.2116  1.1977   155.3    20.5    21.9
    2024 04 12    11 51 32.6 +04 12 53   0.2158  1.2001   154.0    21.5    22.0
    ...
    2024 04 18    11 50 35.6 +06 44 11   0.2427  1.2142   146.7    27.0    22.4
    ...
    2024 04 26    11 52 26.7 +08 52 40   0.2825  1.2315   138.3    33.0    23.0
    ...
    2024 05 11    12 03 20.3 +10 13 35   0.3668  1.2593   125.6    40.7    23.8
    
    A. U. Tomatic                (C) Copyright 2024 MPC           M.P.E.C. 2024-G145
    


    Read MPEC 2024-G144 Read MPEC 2024-G146


    MPEC number:

    Enter an MPEC number in one of the following forms:

    • 1997-B01 (the full form)
    • J97B01 (the packed version of the full form)
    • B01 (the abbreviated form)